Year,Month,Day,Hour,Minute,Value (Times are PST for temperature in C)
2019,05,24,00,00,13.70
2019,05,24,00,01,13.60
2019,05,24,00,02,13.60
2019,05,24,00,03,13.60
2019,05,24,00,04,13.60
2019,05,24,00,05,13.60
2019,05,24,00,06,13.60
2019,05,24,00,07,13.60
2019,05,24,00,08,13.70
2019,05,24,00,09,13.70
2019,05,24,00,10,13.70
2019,05,24,00,11,13.70
2019,05,24,00,12,13.70
2019,05,24,00,13,13.70
2019,05,24,00,14,13.70
2019,05,24,00,15,13.80
2019,05,24,00,16,13.80
2019,05,24,00,17,13.80
2019,05,24,00,18,13.80
2019,05,24,00,19,13.80
2019,05,24,00,20,13.80
2019,05,24,00,21,13.80
2019,05,24,00,22,13.80
2019,05,24,00,23,13.90
2019,05,24,00,24,13.90
2019,05,24,00,25,13.90
2019,05,24,00,26,13.90
2019,05,24,00,27,13.90
2019,05,24,00,28,13.90
2019,05,24,00,29,13.90
2019,05,24,00,30,13.90
2019,05,24,00,31,13.90
2019,05,24,00,32,13.90
2019,05,24,00,33,13.90
2019,05,24,00,34,13.90
2019,05,24,00,35,13.90
2019,05,24,00,36,13.90
2019,05,24,00,37,13.90
2019,05,24,00,38,13.90
2019,05,24,00,39,14.00
2019,05,24,00,40,14.00
2019,05,24,00,41,14.00
2019,05,24,00,42,14.00
2019,05,24,00,43,14.00
2019,05,24,00,44,14.00
2019,05,24,00,45,14.00
2019,05,24,00,46,14.00
2019,05,24,00,47,14.00
2019,05,24,00,48,13.90
2019,05,24,00,49,13.90
2019,05,24,00,50,13.90
2019,05,24,00,51,13.90
2019,05,24,00,52,13.90
2019,05,24,00,53,13.90
2019,05,24,00,54,13.90
2019,05,24,00,55,13.80
2019,05,24,00,56,13.80
2019,05,24,00,57,13.80
2019,05,24,00,58,13.70
2019,05,24,00,59,13.70
2019,05,24,01,00,13.60
2019,05,24,01,01,13.60
2019,05,24,01,02,13.50
2019,05,24,01,03,13.40
2019,05,24,01,04,13.40
2019,05,24,01,05,13.30
2019,05,24,01,06,13.20
2019,05,24,01,07,13.20
2019,05,24,01,08,13.10
2019,05,24,01,09,13.10
2019,05,24,01,10,13.00
2019,05,24,01,11,12.90
2019,05,24,01,12,12.90
2019,05,24,01,13,12.80
2019,05,24,01,14,12.70
2019,05,24,01,15,12.70
2019,05,24,01,16,12.70
2019,05,24,01,17,12.60
2019,05,24,01,18,12.60
2019,05,24,01,19,12.60
2019,05,24,01,20,12.60
2019,05,24,01,21,12.60
2019,05,24,01,22,12.60
2019,05,24,01,23,12.60
2019,05,24,01,24,12.60
2019,05,24,01,25,12.60
2019,05,24,01,26,12.60
2019,05,24,01,27,12.60
2019,05,24,01,28,12.50
2019,05,24,01,29,12.50
2019,05,24,01,30,12.40
2019,05,24,01,31,12.40
2019,05,24,01,32,12.30
2019,05,24,01,33,12.30
2019,05,24,01,34,12.20
2019,05,24,01,35,12.20
2019,05,24,01,36,12.20
2019,05,24,01,37,12.20
2019,05,24,01,38,12.30
2019,05,24,01,39,12.30
2019,05,24,01,40,12.40
2019,05,24,01,41,12.40
2019,05,24,01,42,12.50
2019,05,24,01,43,12.50
2019,05,24,01,44,12.50
2019,05,24,01,45,12.60
2019,05,24,01,46,12.60
2019,05,24,01,47,12.60
2019,05,24,01,48,12.60
2019,05,24,01,49,12.70
2019,05,24,01,50,12.60
2019,05,24,01,51,12.60
2019,05,24,01,52,12.60
2019,05,24,01,53,12.60
2019,05,24,01,54,12.60
2019,05,24,01,55,12.60
2019,05,24,01,56,12.60
2019,05,24,01,57,12.70
2019,05,24,01,58,12.70
2019,05,24,01,59,12.70
2019,05,24,02,00,12.70
2019,05,24,02,01,12.70
2019,05,24,02,02,12.80
2019,05,24,02,03,12.80
2019,05,24,02,04,12.80
2019,05,24,02,05,12.80
2019,05,24,02,06,12.80
2019,05,24,02,07,12.80
2019,05,24,02,08,12.80
2019,05,24,02,09,12.80
2019,05,24,02,10,12.80
2019,05,24,02,11,12.70
2019,05,24,02,12,12.70
2019,05,24,02,13,12.60
2019,05,24,02,14,12.60
2019,05,24,02,15,12.50
2019,05,24,02,16,12.40
2019,05,24,02,17,12.40
2019,05,24,02,18,12.40
2019,05,24,02,19,12.40
2019,05,24,02,20,12.40
2019,05,24,02,21,12.40
2019,05,24,02,22,12.30
2019,05,24,02,23,12.30
2019,05,24,02,24,12.30
2019,05,24,02,25,12.30
2019,05,24,02,26,12.30
2019,05,24,02,27,12.30
2019,05,24,02,28,12.30
2019,05,24,02,29,12.30
2019,05,24,02,30,12.30
2019,05,24,02,31,12.30
2019,05,24,02,32,12.30
2019,05,24,02,33,12.30
2019,05,24,02,34,12.20
2019,05,24,02,35,12.20
2019,05,24,02,36,12.20
2019,05,24,02,37,12.10
2019,05,24,02,38,12.10
2019,05,24,02,39,12.10
2019,05,24,02,40,12.00
2019,05,24,02,41,11.90
2019,05,24,02,42,11.90
2019,05,24,02,43,11.90
2019,05,24,02,44,11.90
2019,05,24,02,45,11.90
2019,05,24,02,46,11.90
2019,05,24,02,47,11.90
2019,05,24,02,48,11.90
2019,05,24,02,49,11.90
2019,05,24,02,50,11.90
2019,05,24,02,51,11.90
2019,05,24,02,52,12.00
2019,05,24,02,53,12.10
2019,05,24,02,54,12.10
2019,05,24,02,55,12.20
2019,05,24,02,56,12.20
2019,05,24,02,57,12.20
2019,05,24,02,58,12.30
2019,05,24,02,59,12.30
2019,05,24,03,00,12.30
2019,05,24,03,01,12.30
2019,05,24,03,02,12.40
2019,05,24,03,03,12.40
2019,05,24,03,04,12.40
2019,05,24,03,05,12.50
2019,05,24,03,06,12.50
2019,05,24,03,07,12.60
2019,05,24,03,08,12.60
2019,05,24,03,09,12.60
2019,05,24,03,10,12.60
2019,05,24,03,11,12.60
2019,05,24,03,12,12.60
2019,05,24,03,13,12.60
2019,05,24,03,14,12.60
2019,05,24,03,15,12.60
2019,05,24,03,16,12.60
2019,05,24,03,17,12.60
2019,05,24,03,18,12.60
2019,05,24,03,19,12.60
2019,05,24,03,20,12.60
2019,05,24,03,21,12.60
2019,05,24,03,22,12.60
2019,05,24,03,23,12.60
2019,05,24,03,24,12.50
2019,05,24,03,25,12.40
2019,05,24,03,26,12.40
2019,05,24,03,27,12.30
2019,05,24,03,28,12.30
2019,05,24,03,29,12.20
2019,05,24,03,30,12.10
2019,05,24,03,31,12.00
2019,05,24,03,32,11.90
2019,05,24,03,33,11.80
2019,05,24,03,34,11.70
2019,05,24,03,35,11.70
2019,05,24,03,36,11.60
2019,05,24,03,37,11.50
2019,05,24,03,38,11.50
2019,05,24,03,39,11.40
2019,05,24,03,40,11.40
2019,05,24,03,41,11.40
2019,05,24,03,42,11.40
2019,05,24,03,43,11.40
2019,05,24,03,44,11.40
2019,05,24,03,45,11.40
2019,05,24,03,46,11.40
2019,05,24,03,47,11.30
2019,05,24,03,48,11.30
2019,05,24,03,49,11.30
2019,05,24,03,50,11.20
2019,05,24,03,51,11.20
2019,05,24,03,52,11.10
2019,05,24,03,53,11.10
2019,05,24,03,54,11.10
2019,05,24,03,55,11.10
2019,05,24,03,56,11.10
2019,05,24,03,57,11.10
2019,05,24,03,58,11.10
2019,05,24,03,59,11.00
2019,05,24,04,00,11.00
2019,05,24,04,01,11.00
2019,05,24,04,02,10.90
2019,05,24,04,03,10.90
2019,05,24,04,04,10.90
2019,05,24,04,05,10.90
2019,05,24,04,06,10.90
2019,05,24,04,07,10.90
2019,05,24,04,08,10.90
2019,05,24,04,09,10.90
2019,05,24,04,10,10.90
2019,05,24,04,11,10.90
2019,05,24,04,12,10.80
2019,05,24,04,13,10.80
2019,05,24,04,14,10.80
2019,05,24,04,15,10.80
2019,05,24,04,16,10.80
2019,05,24,04,17,10.80
2019,05,24,04,18,10.80
2019,05,24,04,19,10.80
2019,05,24,04,20,10.80
2019,05,24,04,21,10.70
2019,05,24,04,22,10.70
2019,05,24,04,23,10.70
2019,05,24,04,24,10.70
2019,05,24,04,25,10.60
2019,05,24,04,26,10.50
2019,05,24,04,27,10.50
2019,05,24,04,28,10.40
2019,05,24,04,29,10.40
2019,05,24,04,30,10.40
2019,05,24,04,31,10.30
2019,05,24,04,32,10.30
2019,05,24,04,33,10.30
2019,05,24,04,34,10.30
2019,05,24,04,35,10.30
2019,05,24,04,36,10.30
2019,05,24,04,37,10.40
2019,05,24,04,38,10.50
2019,05,24,04,39,10.60
2019,05,24,04,40,10.80
2019,05,24,04,41,10.90
2019,05,24,04,42,10.90
2019,05,24,04,43,11.00
2019,05,24,04,44,11.10
2019,05,24,04,45,11.20
2019,05,24,04,46,11.20
2019,05,24,04,47,11.30
2019,05,24,04,48,11.30
2019,05,24,04,49,11.30
2019,05,24,04,50,11.30
2019,05,24,04,51,11.40
2019,05,24,04,52,11.30
2019,05,24,04,53,11.40
2019,05,24,04,54,11.40
2019,05,24,04,55,11.40
2019,05,24,04,56,11.40
2019,05,24,04,57,11.40
2019,05,24,04,58,11.40
2019,05,24,04,59,11.50
2019,05,24,05,00,11.50
2019,05,24,05,01,11.60
2019,05,24,05,02,11.60
2019,05,24,05,03,11.60
2019,05,24,05,04,11.60
2019,05,24,05,05,11.60
2019,05,24,05,06,11.60
2019,05,24,05,07,11.60
2019,05,24,05,08,11.60
2019,05,24,05,09,11.60
2019,05,24,05,10,11.60
2019,05,24,05,11,11.60
2019,05,24,05,12,11.60
2019,05,24,05,13,11.70
2019,05,24,05,14,11.70
2019,05,24,05,15,11.70
2019,05,24,05,16,11.70
2019,05,24,05,17,11.70
2019,05,24,05,18,11.70
2019,05,24,05,19,11.70
2019,05,24,05,20,11.70
2019,05,24,05,21,11.70
2019,05,24,05,22,11.70
2019,05,24,05,23,11.70
2019,05,24,05,24,11.70
2019,05,24,05,25,11.70
2019,05,24,05,26,11.70
2019,05,24,05,27,11.70
2019,05,24,05,28,11.70
2019,05,24,05,29,11.70
2019,05,24,05,30,11.70
2019,05,24,05,31,11.70
2019,05,24,05,32,11.70
2019,05,24,05,33,11.70
2019,05,24,05,34,11.70
2019,05,24,05,35,11.70
2019,05,24,05,36,11.70
2019,05,24,05,37,11.70
2019,05,24,05,38,11.70
2019,05,24,05,39,11.60
2019,05,24,05,40,11.60
2019,05,24,05,41,11.60
2019,05,24,05,42,11.50
2019,05,24,05,43,11.40
2019,05,24,05,44,11.40
2019,05,24,05,45,11.30
2019,05,24,05,46,11.30
2019,05,24,05,47,11.30
2019,05,24,05,48,11.30
2019,05,24,05,49,11.30
2019,05,24,05,50,11.20
2019,05,24,05,51,11.20
2019,05,24,05,52,11.20
2019,05,24,05,53,11.20
2019,05,24,05,54,11.20
2019,05,24,05,55,11.20
2019,05,24,05,56,11.20
2019,05,24,05,57,11.20
2019,05,24,05,58,11.20
2019,05,24,05,59,11.20
2019,05,24,06,00,11.20
2019,05,24,06,01,11.20
2019,05,24,06,02,11.30
2019,05,24,06,03,11.30
2019,05,24,06,04,11.30
2019,05,24,06,05,11.30
2019,05,24,06,06,11.30
2019,05,24,06,07,11.30
2019,05,24,06,08,11.30
2019,05,24,06,09,11.30
2019,05,24,06,10,11.30
2019,05,24,06,11,11.20
2019,05,24,06,12,11.20
2019,05,24,06,13,11.10
2019,05,24,06,14,11.10
2019,05,24,06,15,11.00
2019,05,24,06,16,10.90
2019,05,24,06,17,10.90
2019,05,24,06,18,10.80
2019,05,24,06,19,10.80
2019,05,24,06,20,10.80
2019,05,24,06,21,10.80
2019,05,24,06,22,10.70
2019,05,24,06,23,10.70
2019,05,24,06,24,10.70
2019,05,24,06,25,10.70
2019,05,24,06,26,10.60
2019,05,24,06,27,10.60
2019,05,24,06,28,10.60
2019,05,24,06,29,10.60
2019,05,24,06,30,10.60
2019,05,24,06,31,10.60
2019,05,24,06,32,10.50
2019,05,24,06,33,10.50
2019,05,24,06,34,10.50
2019,05,24,06,35,10.50
2019,05,24,06,36,10.40
2019,05,24,06,37,10.40
2019,05,24,06,38,10.50
2019,05,24,06,39,10.50
2019,05,24,06,40,10.50
2019,05,24,06,41,10.50
2019,05,24,06,42,10.50
2019,05,24,06,43,10.50
2019,05,24,06,44,10.50
2019,05,24,06,45,10.50
2019,05,24,06,46,10.50
2019,05,24,06,47,10.50
2019,05,24,06,48,10.50
2019,05,24,06,49,10.50
2019,05,24,06,50,10.50
2019,05,24,06,51,10.50
2019,05,24,06,52,10.50
2019,05,24,06,53,10.50
2019,05,24,06,54,10.60
2019,05,24,06,55,10.60
2019,05,24,06,56,10.60
2019,05,24,06,57,10.60
2019,05,24,06,58,10.70
2019,05,24,06,59,10.70
2019,05,24,07,00,10.70
2019,05,24,07,01,10.70
2019,05,24,07,02,10.70
2019,05,24,07,03,10.80
2019,05,24,07,04,10.80
2019,05,24,07,05,10.90
2019,05,24,07,06,10.90
2019,05,24,07,07,10.90
2019,05,24,07,08,11.00
2019,05,24,07,09,11.00
2019,05,24,07,10,11.10
2019,05,24,07,11,11.20
2019,05,24,07,12,11.30
2019,05,24,07,13,11.30
2019,05,24,07,14,11.40
2019,05,24,07,15,11.50
2019,05,24,07,16,11.60
2019,05,24,07,17,11.70
2019,05,24,07,18,11.80
2019,05,24,07,19,11.90
2019,05,24,07,20,12.00
2019,05,24,07,21,12.10
2019,05,24,07,22,12.20
2019,05,24,07,23,12.30
2019,05,24,07,24,12.40
2019,05,24,07,25,12.50
2019,05,24,07,26,12.60
2019,05,24,07,27,12.70
2019,05,24,07,28,12.80
2019,05,24,07,29,12.90
2019,05,24,07,30,12.90
2019,05,24,07,31,13.00
2019,05,24,07,32,13.10
2019,05,24,07,33,13.10
2019,05,24,07,34,13.20
2019,05,24,07,35,13.30
2019,05,24,07,36,13.40
2019,05,24,07,37,13.50
2019,05,24,07,38,13.60
2019,05,24,07,39,13.70
2019,05,24,07,40,13.80
2019,05,24,07,41,13.90
2019,05,24,07,42,13.90
2019,05,24,07,43,14.00
2019,05,24,07,44,14.10
2019,05,24,07,45,14.10
2019,05,24,07,46,14.20
2019,05,24,07,47,14.20
2019,05,24,07,48,14.30
2019,05,24,07,49,14.30
2019,05,24,07,50,14.30
2019,05,24,07,51,14.30
2019,05,24,07,52,14.40
2019,05,24,07,53,14.40
2019,05,24,07,54,14.40
2019,05,24,07,55,14.50
2019,05,24,07,56,14.60
2019,05,24,07,57,14.60
2019,05,24,07,58,14.60
2019,05,24,07,59,14.70
2019,05,24,08,00,14.70
2019,05,24,08,01,14.70
2019,05,24,08,02,14.70
2019,05,24,08,03,14.70
2019,05,24,08,04,14.70
2019,05,24,08,05,14.70
2019,05,24,08,06,14.70
2019,05,24,08,07,14.70
2019,05,24,08,08,14.70
2019,05,24,08,09,14.80
2019,05,24,08,10,14.80
2019,05,24,08,11,14.80
2019,05,24,08,12,14.80
2019,05,24,08,13,14.80
2019,05,24,08,14,14.80
2019,05,24,08,15,14.90
2019,05,24,08,16,14.90
2019,05,24,08,17,14.90
2019,05,24,08,18,14.90
2019,05,24,08,19,14.90
2019,05,24,08,20,14.90
2019,05,24,08,21,15.00
2019,05,24,08,22,15.00
2019,05,24,08,23,15.10
2019,05,24,08,24,15.20
2019,05,24,08,25,15.20
2019,05,24,08,26,15.20
2019,05,24,08,27,15.10
2019,05,24,08,28,15.00
2019,05,24,08,29,15.00
2019,05,24,08,30,15.00
2019,05,24,08,31,15.00
2019,05,24,08,32,14.90
2019,05,24,08,33,14.80
2019,05,24,08,34,14.80
2019,05,24,08,35,14.80
2019,05,24,08,36,14.70
2019,05,24,08,37,14.70
2019,05,24,08,38,14.70
2019,05,24,08,39,14.70
2019,05,24,08,40,14.70
2019,05,24,08,41,14.60
2019,05,24,08,42,14.60
2019,05,24,08,43,14.60
2019,05,24,08,44,14.70
2019,05,24,08,45,14.70
2019,05,24,08,46,14.70
2019,05,24,08,47,14.70
2019,05,24,08,48,14.60
2019,05,24,08,49,14.60
2019,05,24,08,50,14.60
2019,05,24,08,51,14.60
2019,05,24,08,52,14.60
2019,05,24,08,53,14.70
2019,05,24,08,54,14.70
2019,05,24,08,55,14.80
2019,05,24,08,56,14.80
2019,05,24,08,57,14.90
2019,05,24,08,58,14.90
2019,05,24,08,59,15.00
2019,05,24,09,00,15.10
2019,05,24,09,01,15.10
2019,05,24,09,02,15.20
2019,05,24,09,03,15.20
2019,05,24,09,04,15.20
2019,05,24,09,05,15.20
2019,05,24,09,06,15.20
2019,05,24,09,07,15.20
2019,05,24,09,08,15.20
2019,05,24,09,09,15.30
2019,05,24,09,10,15.30
2019,05,24,09,11,15.20
2019,05,24,09,12,15.20
2019,05,24,09,13,15.20
2019,05,24,09,14,15.30
2019,05,24,09,15,15.30
2019,05,24,09,16,15.40
2019,05,24,09,17,15.40
2019,05,24,09,18,15.50
2019,05,24,09,19,15.60
2019,05,24,09,20,15.60
2019,05,24,09,21,15.60
2019,05,24,09,22,15.60
2019,05,24,09,23,15.70
2019,05,24,09,24,15.70
2019,05,24,09,25,15.50
2019,05,24,09,26,15.50
2019,05,24,09,27,15.40
2019,05,24,09,28,15.30
2019,05,24,09,29,15.30
2019,05,24,09,30,15.30
2019,05,24,09,31,15.30
2019,05,24,09,32,15.30
2019,05,24,09,33,15.30
2019,05,24,09,34,15.30
2019,05,24,09,35,15.30
2019,05,24,09,36,15.30
2019,05,24,09,37,15.30
2019,05,24,09,38,15.30
2019,05,24,09,39,15.20
2019,05,24,09,40,15.10
2019,05,24,09,41,15.00
2019,05,24,09,42,14.90
2019,05,24,09,43,14.80
2019,05,24,09,44,14.80
2019,05,24,09,45,14.80
2019,05,24,09,46,14.90
2019,05,24,09,47,14.90
2019,05,24,09,48,14.90
2019,05,24,09,49,14.80
2019,05,24,09,50,14.80
2019,05,24,09,51,14.80
2019,05,24,09,52,14.80
2019,05,24,09,53,14.80
2019,05,24,09,54,14.70
2019,05,24,09,55,14.70
2019,05,24,09,56,14.70
2019,05,24,09,57,14.70
2019,05,24,09,58,14.70
2019,05,24,09,59,14.80
2019,05,24,10,00,14.80
2019,05,24,10,01,14.90
2019,05,24,10,02,14.90
2019,05,24,10,03,15.00
2019,05,24,10,04,15.00
2019,05,24,10,05,15.10
2019,05,24,10,06,15.10
2019,05,24,10,07,15.00
2019,05,24,10,08,15.00
2019,05,24,10,09,15.00
2019,05,24,10,10,15.00
2019,05,24,10,11,15.00
2019,05,24,10,12,14.90
2019,05,24,10,13,14.90
2019,05,24,10,14,15.00
2019,05,24,10,15,15.10
2019,05,24,10,16,15.10
2019,05,24,10,17,15.20
2019,05,24,10,18,15.10
2019,05,24,10,19,15.10
2019,05,24,10,20,14.90
2019,05,24,10,21,14.90
2019,05,24,10,22,14.80
2019,05,24,10,23,14.80
2019,05,24,10,24,14.80
2019,05,24,10,25,14.80
2019,05,24,10,26,14.90
2019,05,24,10,27,15.00
2019,05,24,10,28,15.00
2019,05,24,10,29,15.00
2019,05,24,10,30,15.10
2019,05,24,10,31,15.10
2019,05,24,10,32,15.20
2019,05,24,10,33,15.30
2019,05,24,10,34,15.30
2019,05,24,10,35,15.30
2019,05,24,10,36,15.20
2019,05,24,10,37,15.20
2019,05,24,10,38,15.20
2019,05,24,10,39,15.30
2019,05,24,10,40,15.40
2019,05,24,10,41,15.40
2019,05,24,10,42,15.50
2019,05,24,10,43,15.50
2019,05,24,10,44,15.50
2019,05,24,10,45,15.60
2019,05,24,10,46,15.60
2019,05,24,10,47,15.50
2019,05,24,10,48,15.50
2019,05,24,10,49,15.40
2019,05,24,10,50,15.40
2019,05,24,10,51,15.40
2019,05,24,10,52,15.40
2019,05,24,10,53,15.40
2019,05,24,10,54,15.30
2019,05,24,10,55,15.30
2019,05,24,10,56,15.30
2019,05,24,10,57,15.20
2019,05,24,10,58,15.10
2019,05,24,10,59,15.10
2019,05,24,11,00,15.10
2019,05,24,11,01,15.10
2019,05,24,11,02,15.10
2019,05,24,11,03,15.10
2019,05,24,11,04,15.10
2019,05,24,11,05,15.10
2019,05,24,11,06,15.10
2019,05,24,11,07,15.10
2019,05,24,11,08,15.20
2019,05,24,11,09,15.20
2019,05,24,11,10,15.30
2019,05,24,11,11,15.30
2019,05,24,11,12,15.40
2019,05,24,11,13,15.40
2019,05,24,11,14,15.50
2019,05,24,11,15,15.50
2019,05,24,11,16,15.60
2019,05,24,11,17,15.60
2019,05,24,11,18,15.70
2019,05,24,11,19,15.80
2019,05,24,11,20,15.80
2019,05,24,11,21,15.80
2019,05,24,11,22,15.90
2019,05,24,11,23,15.90
2019,05,24,11,24,15.70
2019,05,24,11,25,15.50
2019,05,24,11,26,15.30
2019,05,24,11,27,15.10
2019,05,24,11,28,14.90
2019,05,24,11,29,14.70
2019,05,24,11,30,14.70
2019,05,24,11,31,14.60
2019,05,24,11,32,14.50
2019,05,24,11,33,14.40
2019,05,24,11,34,14.40
2019,05,24,11,35,14.50
2019,05,24,11,36,14.50
2019,05,24,11,37,14.50
2019,05,24,11,38,14.50
2019,05,24,11,39,14.50
2019,05,24,11,40,14.60
2019,05,24,11,41,14.60
2019,05,24,11,42,14.60
2019,05,24,11,43,14.70
2019,05,24,11,44,14.70
2019,05,24,11,45,14.80
2019,05,24,11,46,14.80
2019,05,24,11,47,14.90
2019,05,24,11,48,14.90
2019,05,24,11,49,14.90
2019,05,24,11,50,14.90
2019,05,24,11,51,14.90
2019,05,24,11,52,14.90
2019,05,24,11,53,14.90
2019,05,24,11,54,14.90
2019,05,24,11,55,14.90
2019,05,24,11,56,14.80
2019,05,24,11,57,14.80
2019,05,24,11,58,14.70
2019,05,24,11,59,14.60
2019,05,24,12,00,14.60
2019,05,24,12,01,14.60
2019,05,24,12,02,14.50
2019,05,24,12,03,14.50
2019,05,24,12,04,14.40
2019,05,24,12,05,14.50
2019,05,24,12,06,14.60
2019,05,24,12,07,14.70
2019,05,24,12,08,14.80
2019,05,24,12,09,14.80
2019,05,24,12,10,14.90
2019,05,24,12,11,15.00
2019,05,24,12,12,15.10
2019,05,24,12,13,15.20
2019,05,24,12,14,15.40
2019,05,24,12,15,15.40
2019,05,24,12,16,15.50
2019,05,24,12,17,15.50
2019,05,24,12,18,15.50
2019,05,24,12,19,15.50
2019,05,24,12,20,15.50
2019,05,24,12,21,15.50
2019,05,24,12,22,15.60
2019,05,24,12,23,15.50
2019,05,24,12,24,15.50
2019,05,24,12,25,15.50
2019,05,24,12,26,15.60
2019,05,24,12,27,15.50
2019,05,24,12,28,15.40
2019,05,24,12,29,15.40
2019,05,24,12,30,15.40
2019,05,24,12,31,15.40
2019,05,24,12,32,15.50
2019,05,24,12,33,15.50
2019,05,24,12,34,15.50
2019,05,24,12,35,15.40
2019,05,24,12,36,15.40
2019,05,24,12,37,15.40
2019,05,24,12,38,15.40
2019,05,24,12,39,15.50
2019,05,24,12,40,15.60
2019,05,24,12,41,15.60
2019,05,24,12,42,15.60
2019,05,24,12,43,15.60
2019,05,24,12,44,15.60
2019,05,24,12,45,15.60
2019,05,24,12,46,15.70
2019,05,24,12,47,15.80
2019,05,24,12,48,15.80
2019,05,24,12,49,15.90
2019,05,24,12,50,15.90
2019,05,24,12,51,15.90
2019,05,24,12,52,15.90
2019,05,24,12,53,16.00
2019,05,24,12,54,16.00
2019,05,24,12,55,16.10
2019,05,24,12,56,16.10
2019,05,24,12,57,16.10
2019,05,24,12,58,16.20
2019,05,24,12,59,16.20
2019,05,24,13,00,16.30
2019,05,24,13,01,16.50
2019,05,24,13,02,16.50
2019,05,24,13,03,16.60
2019,05,24,13,04,16.70
2019,05,24,13,05,16.80
2019,05,24,13,06,16.80
2019,05,24,13,07,16.90
2019,05,24,13,08,17.00
2019,05,24,13,09,16.90
2019,05,24,13,10,16.90
2019,05,24,13,11,16.80
2019,05,24,13,12,16.80
2019,05,24,13,13,16.90
2019,05,24,13,14,16.90
2019,05,24,13,15,16.80
2019,05,24,13,16,16.70
2019,05,24,13,17,16.60
2019,05,24,13,18,16.60
2019,05,24,13,19,16.60
2019,05,24,13,20,16.70
2019,05,24,13,21,16.70
2019,05,24,13,22,16.70
2019,05,24,13,23,16.70
2019,05,24,13,24,16.70
2019,05,24,13,25,16.70
2019,05,24,13,26,16.70
2019,05,24,13,27,16.80
2019,05,24,13,28,16.80
2019,05,24,13,29,16.80
2019,05,24,13,30,16.70
2019,05,24,13,31,16.60
2019,05,24,13,32,16.50
2019,05,24,13,33,16.40
2019,05,24,13,34,16.40
2019,05,24,13,35,16.40
2019,05,24,13,36,16.50
2019,05,24,13,37,16.50
2019,05,24,13,38,16.50
2019,05,24,13,39,16.50
2019,05,24,13,40,16.60
2019,05,24,13,41,16.60
2019,05,24,13,42,16.60
2019,05,24,13,43,16.70
2019,05,24,13,44,16.80
2019,05,24,13,45,16.90
2019,05,24,13,46,17.00
2019,05,24,13,47,17.00
2019,05,24,13,48,16.90
2019,05,24,13,49,16.90
2019,05,24,13,50,16.80
2019,05,24,13,51,16.70
2019,05,24,13,52,16.70
2019,05,24,13,53,16.60
2019,05,24,13,54,16.60
2019,05,24,13,55,16.60
2019,05,24,13,56,16.60
2019,05,24,13,57,16.70
2019,05,24,13,58,16.80
2019,05,24,13,59,16.80
2019,05,24,14,00,16.80
2019,05,24,14,01,16.80
2019,05,24,14,02,16.80
2019,05,24,14,03,16.80
2019,05,24,14,04,16.80
2019,05,24,14,05,16.80
2019,05,24,14,06,16.90
2019,05,24,14,07,16.90
2019,05,24,14,08,16.90
2019,05,24,14,09,16.90
2019,05,24,14,10,17.00
2019,05,24,14,11,17.00
2019,05,24,14,12,17.10
2019,05,24,14,13,17.10
2019,05,24,14,14,17.10
2019,05,24,14,15,17.10
2019,05,24,14,16,17.10
2019,05,24,14,17,17.10
2019,05,24,14,18,17.10
2019,05,24,14,19,17.10
2019,05,24,14,20,17.00
2019,05,24,14,21,17.00
2019,05,24,14,22,16.90
2019,05,24,14,23,16.80
2019,05,24,14,24,16.60
2019,05,24,14,25,16.50
2019,05,24,14,26,16.40
2019,05,24,14,27,16.40
2019,05,24,14,28,16.40
2019,05,24,14,29,16.40
2019,05,24,14,30,16.40
2019,05,24,14,31,16.40
2019,05,24,14,32,16.40
2019,05,24,14,33,16.40
2019,05,24,14,34,16.40
2019,05,24,14,35,16.40
2019,05,24,14,36,16.40
2019,05,24,14,37,16.40
2019,05,24,14,38,16.50
2019,05,24,14,39,16.50
2019,05,24,14,40,16.60
2019,05,24,14,41,16.60
2019,05,24,14,42,16.70
2019,05,24,14,43,16.80
2019,05,24,14,44,16.90
2019,05,24,14,45,17.00
2019,05,24,14,46,17.10
2019,05,24,14,47,17.10
2019,05,24,14,48,17.20
2019,05,24,14,49,17.20
2019,05,24,14,50,17.20
2019,05,24,14,51,17.20
2019,05,24,14,52,17.10
2019,05,24,14,53,17.10
2019,05,24,14,54,17.20
2019,05,24,14,55,17.20
2019,05,24,14,56,17.30
2019,05,24,14,57,17.30
2019,05,24,14,58,17.20
2019,05,24,14,59,17.20
2019,05,24,15,00,17.10
2019,05,24,15,01,17.00
2019,05,24,15,02,17.00
2019,05,24,15,03,16.90
2019,05,24,15,04,16.80
2019,05,24,15,05,16.80
2019,05,24,15,06,16.70
2019,05,24,15,07,16.70
2019,05,24,15,08,16.70
2019,05,24,15,09,16.70
2019,05,24,15,10,16.70
2019,05,24,15,11,16.70
2019,05,24,15,12,16.70
2019,05,24,15,13,16.70
2019,05,24,15,14,16.80
2019,05,24,15,15,16.80
2019,05,24,15,16,16.90
2019,05,24,15,17,17.00
2019,05,24,15,18,17.00
2019,05,24,15,19,17.10
2019,05,24,15,20,17.20
2019,05,24,15,21,17.30
2019,05,24,15,22,17.30
2019,05,24,15,23,17.30
2019,05,24,15,24,17.30
2019,05,24,15,25,17.30
2019,05,24,15,26,17.30
2019,05,24,15,27,17.30
2019,05,24,15,28,17.30
2019,05,24,15,29,17.30
2019,05,24,15,30,17.30
2019,05,24,15,31,17.40
2019,05,24,15,32,17.40
2019,05,24,15,33,17.50
2019,05,24,15,34,17.50
2019,05,24,15,35,17.40
2019,05,24,15,36,17.30
2019,05,24,15,37,17.30
2019,05,24,15,38,17.30
2019,05,24,15,39,17.30
2019,05,24,15,40,17.30
2019,05,24,15,41,17.20
2019,05,24,15,42,17.20
2019,05,24,15,43,17.20
2019,05,24,15,44,17.10
2019,05,24,15,45,17.10
2019,05,24,15,46,17.10
2019,05,24,15,47,17.00
2019,05,24,15,48,17.00
2019,05,24,15,49,17.00
2019,05,24,15,50,17.00
2019,05,24,15,51,17.00
2019,05,24,15,52,17.00
2019,05,24,15,53,17.00
2019,05,24,15,54,17.00
2019,05,24,15,55,17.00
2019,05,24,15,56,17.10
2019,05,24,15,57,17.10
2019,05,24,15,58,17.10
2019,05,24,15,59,17.10
2019,05,24,16,00,17.20
2019,05,24,16,01,17.20
2019,05,24,16,02,17.20
2019,05,24,16,03,17.30
2019,05,24,16,04,17.40
2019,05,24,16,05,17.50
2019,05,24,16,06,17.60
2019,05,24,16,07,17.70
2019,05,24,16,08,17.80
2019,05,24,16,09,18.00
2019,05,24,16,10,18.10
2019,05,24,16,11,18.20
2019,05,24,16,12,18.30
2019,05,24,16,13,18.50
2019,05,24,16,14,18.60
2019,05,24,16,15,18.70
2019,05,24,16,16,18.80
2019,05,24,16,17,18.80
2019,05,24,16,18,18.80
2019,05,24,16,19,18.90
2019,05,24,16,20,19.00
2019,05,24,16,21,19.10
2019,05,24,16,22,19.20
2019,05,24,16,23,19.30
2019,05,24,16,24,19.30
2019,05,24,16,25,19.30
2019,05,24,16,26,19.20
2019,05,24,16,27,19.10
2019,05,24,16,28,19.10
2019,05,24,16,29,19.10
2019,05,24,16,30,19.10
2019,05,24,16,31,19.20
2019,05,24,16,32,19.20
2019,05,24,16,33,19.20
2019,05,24,16,34,19.20
2019,05,24,16,35,19.20
2019,05,24,16,36,19.10
2019,05,24,16,37,19.00
2019,05,24,16,38,18.90
2019,05,24,16,39,18.80
2019,05,24,16,40,18.80
2019,05,24,16,41,18.80
2019,05,24,16,42,18.80
2019,05,24,16,43,18.70
2019,05,24,16,44,18.60
2019,05,24,16,45,18.60
2019,05,24,16,46,18.50
2019,05,24,16,47,18.60
2019,05,24,16,48,18.70
2019,05,24,16,49,18.70
2019,05,24,16,50,18.70
2019,05,24,16,51,18.70
2019,05,24,16,52,18.80
2019,05,24,16,53,18.80
2019,05,24,16,54,18.80
2019,05,24,16,55,18.70
2019,05,24,16,56,18.70
2019,05,24,16,57,18.60
2019,05,24,16,58,18.50
2019,05,24,16,59,18.30
2019,05,24,17,00,18.20
2019,05,24,17,01,18.20
2019,05,24,17,02,18.20
2019,05,24,17,03,18.10
2019,05,24,17,04,18.10
2019,05,24,17,05,18.10
2019,05,24,17,06,18.10
2019,05,24,17,07,18.10
2019,05,24,17,08,18.10
2019,05,24,17,09,18.10
2019,05,24,17,10,18.00
2019,05,24,17,11,18.00
2019,05,24,17,12,17.90
2019,05,24,17,13,17.90
2019,05,24,17,14,17.90
2019,05,24,17,15,17.90
2019,05,24,17,16,18.00
2019,05,24,17,17,18.00
2019,05,24,17,18,18.00
2019,05,24,17,19,18.00